Weather History for KDIJ - November, 2012

Change the Weather History Date:

Tuesday, November 20, 2012

  Actual Average (KRXE) Record (KRXE)
Temperature  
Mean Temperature 42 °F 28 °F  
Max Temperature 45 °F 38 °F 55 °F (2008)
Min Temperature 38 °F 19 °F 0 °F (1977)
Degree Days  
Heating Degree Days 24 37  
Month to date heating degree days 633  
Since 1 July heating degree days 1620  
Cooling Degree Days 0 0  
Month to date cooling degree days 0  
Year to date cooling degree days 208  
Moisture  
Dew Point 32 °F    
Average Humidity 66    
Maximum Humidity 76    
Minimum Humidity 50    
Precipitation  
Precipitation 0.00 in 0.04 in 0.65 in (2010)
Month to date precipitation 0.75  
Year to date precipitation 11.74  
Sea Level Pressure  
Sea Level Pressure 30.05 in    
Wind  
Wind Speed 8 mph (South)    
Max Wind Speed 16 mph    
Max Gust Speed -    
Visibility 10 miles    
Events      
T = Trace of Precipitation, MM = Missing Value Source: NWS Daily Summary

Daily Weather History Graph

Daily Weather History Graph

Search for Another Location

Airport or City:

Trip Planner

Search our weather history database for the weather conditions in past years. The results will help you decide how hot, cold, wet, or windy it might be!

Date:

Astronomy

Nov. 20, 2012 Rise Set
Actual Time 7:25 AM MST 4:54 PM MST
Civil Twilight 6:54 AM MST 5:25 PM MST
Nautical Twilight 6:19 AM MST 6:00 PM MST
Astronomical Twilight 5:45 AM MST 6:34 PM MST
Moon 12:54 PM MST (11/20) No Moon Set
Length of Visible Light 10h 31m
Length of Day
9h 28m
First Quarter, 52% of the Moon is Illuminated
Nov 20
First Quarter
Nov 28
Full
Dec 6
Last Quarter
Dec 13
New
Dec 19
First Quarter

Hourly Weather History & Observations

Time (MST) Temp. Windchill Dew Point Humidity Pressure Visibility Wind Dir Wind Speed Gust Speed Precip Events Conditions
12:56 AM 38.8 °F 33.8 °F 32.0 °F 76% 30.15 in 10.0 mi SSE 6.9 mph - N/A   Overcast
1:56 AM 41.0 °F 36.4 °F 32.0 °F 70% 30.13 in 10.0 mi South 6.9 mph - N/A   Overcast
2:56 AM 43.0 °F 36.8 °F 32.0 °F 65% 30.12 in 10.0 mi South 11.5 mph - N/A   Overcast
3:56 AM 43.0 °F 37.2 °F 32.0 °F 65% 30.12 in 10.0 mi South 10.4 mph - N/A   Overcast
4:56 AM 43.0 °F 37.7 °F 32.0 °F 65% 30.12 in 10.0 mi South 9.2 mph - N/A   Overcast
5:56 AM 41.9 °F 35.4 °F 32.0 °F 68% 30.12 in 10.0 mi SSE 11.5 mph - N/A   Overcast
6:56 AM 41.9 °F 36.3 °F 32.9 °F 70% 30.12 in 10.0 mi South 9.2 mph - N/A   Overcast
7:56 AM 43.0 °F 39.5 °F 32.0 °F 65% 30.12 in 10.0 mi South 5.8 mph - N/A   Overcast
8:56 AM 43.0 °F 37.7 °F 32.9 °F 68% 30.12 in 10.0 mi SSE 9.2 mph - N/A   Overcast
9:56 AM 43.0 °F 39.5 °F 32.9 °F 68% 30.13 in 10.0 mi SSW 5.8 mph - N/A   Overcast
10:56 AM 45.0 °F 37.9 °F 32.9 °F 63% 30.11 in 10.0 mi SSW 16.1 mph - N/A   Mostly Cloudy
11:56 AM 45.0 °F 41.2 °F 34.9 °F 68% 30.09 in 10.0 mi South 6.9 mph - N/A   Mostly Cloudy
1:56 PM 43.9 °F 39.3 °F 36.0 °F 74% 30.04 in 10.0 mi South 8.1 mph - N/A   Partly Cloudy
2:56 PM 45.0 °F 43.5 °F 36.0 °F 71% 30.01 in 10.0 mi SW 3.5 mph - N/A   Clear
3:56 PM 43.9 °F - 36.9 °F 76% 30.01 in 10.0 mi Calm Calm - N/A   Clear
4:56 PM 41.9 °F 39.0 °F 34.9 °F 76% 30.01 in 10.0 mi SE 4.6 mph - N/A   Mostly Cloudy
5:56 PM 41.9 °F 40.0 °F 32.9 °F 70% 29.99 in 10.0 mi SW 3.5 mph - N/A   Overcast
6:56 PM 45.0 °F 40.1 °F 30.0 °F 56% 29.98 in 10.0 mi SSW 9.2 mph - N/A   Overcast
7:56 PM 43.0 °F 37.7 °F 31.1 °F 63% 29.98 in 10.0 mi SSW 9.2 mph - N/A   Mostly Cloudy
8:56 PM 43.9 °F 38.8 °F 29.1 °F 56% 29.95 in 10.0 mi South 9.2 mph - N/A   Overcast
9:56 PM 45.9 °F 40.0 °F 28.0 °F 50% 29.93 in 10.0 mi South 12.7 mph - N/A   Overcast
10:56 PM 45.0 °F 38.9 °F 30.0 °F 56% 29.92 in 10.0 mi South 12.7 mph - N/A   Overcast
11:56 PM 45.9 °F 40.4 °F 28.0 °F 50% 29.91 in 10.0 mi South 11.5 mph - N/A   Overcast